Location: Excel
(51.3833°N, 110.5667°W)
Time: 20:27:31
(UTC+00:00)

Envisat - Pass Details

Date: 02 December 2021
Orbit: 764 x 766 km, 98.2° (Epoch: 26 January)

Event Time Altitude Azimuth Distance (km) Brightness Sun altitude
Rises 13:24:41 0° 9° (N) 3,248 6.2 -15.1°
Reaches altitude 10° 13:27:06 10° 2° (N) 2,317 5.3 -14.7°
Maximum altitude 13:31:50 40° 295° (WNW) 1,122 3.4 -14.0°
Drops below altitude 10° 13:36:33 10° 227° (SW) 2,301 5.2 -13.3°
Sets 13:38:57 0° 220° (SW) 3,223 6.0 -13.0°
